Main page
METAR-TAF:

METAR-TAF

Airports :

Salem–Leckrone Airport

Salem, Illinois, United States

latitude: 38-38-34N, longitude: 088-57-51W, elevation: 574 ft

Current weather observation

The report was made 16 minutes ago, at 21:55 UTC
Wind 13 mph from the North with gusts up to 17 mph
Temperature 84°F
Humidity 58%
Pressure 29.96 in. Hg
Visibility: 10 miles
Clear sky

METAR: KSLO 172155Z AUTO 35011G15KT 10SM CLR 29/20 A2996 RMK AO2 T02870195

Time: 17:11 (22:11 UTC)


TAF: missing

Weather observations and forecasts of more than 4000 airports (METAR and TAF reports).

The available stations are represented by yellow and red dots on the map.

Hover mouse over dot to see the name of the station.

Then click to see weather observations and forecasts.

To change the map : click on the green buttons with a black cross to zoom in, on the green button with a dash to zoom out, or on the green arrows for adjacent maps.


METAR-TAF: